Regional Weather Roundup
Issued by NWS

Home | Current Version | Previous Version | Text Only | Print | Product List | Glossary Off
Versions: 1 2 3 4 5 6 7 8 9 10 11 12 13 14 15 16 17 18 19 20 21 22 23 24 25 26 27 28 29 30 31 32 33 34 35 36 37 38 39 40 41 42 43 44 45 46 47 48 49 50

000
ASUS43 KOAX 020402
RWRNE

WEATHER ROUNDUP FOR NEBRASKA
NATIONAL WEATHER SERVICE OMAHA NE
1100 PM CDT SAT AUG 01 2015

NOTES: SATELLITE DATA IS BEING USED TO AUGMENT CLOUD COVER ABOVE
       12000 FEET.
       "FAIR" INDICATES FEW OR NO CLOUDS BELOW 12,000 FEET WITH NO
       SIGNIFICANT WEATHER AND/OR OBSTRUCTIONS TO VISIBILITY.

  * THESE STATIONS DO NOT REPORT WEATHER SUCH AS RAIN...SNOW OR FOG.

NEZ001>004-019>022-054>056-020500-
NEBRASKA PANHANDLE

CITY           SKY/WX    TMP DP  RH WIND       PRES   REMARKS
SCOTTSBLUFF    PTCLDY    67  59  75 E5        30.04R
ALLIANCE       PTCLDY    66  57  72 S7        30.02R
CHADRON        CLEAR     77  61  57 S3        29.97R
KIMBALL        MOCLDY    69  54  57 SE9       30.10S
SIDNEY         PTCLDY    71  55  56 S17       30.08R
$$

NEZ057>060-069>072-079>082-020500-
SOUTHWEST NEBRASKA

CITY           SKY/WX    TMP DP  RH WIND       PRES   REMARKS
NORTH PLATTE   MOCLDY    68  63  84 CALM      29.97R
IMPERIAL       CLOUDY    74  52  46 S5        30.00F
LEXINGTON      CLOUDY    73  66  79 S3        29.96S
MCCOOK         CLOUDY    76  56  49 SW8       29.97F
$$

NEZ005>010-023>029-035>040-094-020500-
NORTH CENTRAL NEBRASKA

CITY           SKY/WX    TMP DP  RH WIND       PRES   REMARKS
VALENTINE      CLEAR     67  61  81 SW8       29.95R
BROKEN BOW     MOCLDY    69  63  81 CALM      29.96R
O`NEILL        CLEAR     68  63  84 S7        29.92S
ORD            PTCLDY    66  64  93 NW3       29.93R
$$

NEZ041-046>049-061>064-073>077-083>087-020500-
SOUTH CENTRAL NEBRASKA

CITY           SKY/WX    TMP DP  RH WIND       PRES   REMARKS
GRAND ISLAND   MOCLDY    72  68  87 S7        29.94S
AURORA         MOCLDY    72  70  92 S3        29.94S
HASTINGS       CLOUDY    77  69  76 S7        29.95S
KEARNEY *      CLOUDY    72  64  78 CALM      29.95S
$$

NEZ011>018-030>034-042>045-020500-
NORTHEAST NEBRASKA

CITY           SKY/WX    TMP DP  RH WIND       PRES   REMARKS
NORFOLK        PTCLDY    69  65  86 CALM      29.92R
BLAIR          PTCLDY    73  68  84 S6        29.92S
COLUMBUS *     CLEAR     64  61  88 CALM      29.93S
TEKAMAH        MOCLDY    69  68  96 S5        29.90R
$$

NEZ050>053-065>068-078-088>093-020500-
SOUTHEAST NEBRASKA

CITY           SKY/WX    TMP DP  RH WIND       PRES   REMARKS
LINCOLN        MOCLDY    77  68  73 CALM      29.93R
OMAHA EPPLEY   PTCLDY    78  72  81 S8        29.91R
FALLS CITY     MOCLDY    74  68  81 SE12      29.95R
$$

NEZ044-045-051>053-067-020500-
OMAHA AREA

CITY           SKY/WX    TMP DP  RH WIND       PRES   REMARKS
OMAHA EPPLEY   PTCLDY    78  72  81 S8        29.91R
BLAIR          PTCLDY    73  68  84 S6        29.92S
$$



USA.gov is the U.S. government's official web portal to all federal, state and local government web resources and services.